Tracking 20942 objects as of 14-Jul-2020
HD Live streaming from Space Station
objects crossing your sky now

SL-8 DEB

Track SL-8 DEB now!
10-day predictions


NORAD ID: 21137
Int'l Code: 1991-009P
Perigee: 1,487.7 km
Apogee: 1,728.9 km
Inclination: 74.0 °
Period: 118.2 minutes
Semi major axis: 7979 km
RCS: 0.3349 m2 (medium)
Launch date: February 12, 1991
Source: Commonwealth of Independent States (former USSR) (CIS)
Launch site: PLESETSK MISSILE AND SPACE COMPLEX (PKMTR)

Note: This is SATELLITE DEBRIS
aabbcc
Your satellite tracking list
Your tracking list is empty




NASA's NSSDC Master Catalog

Two Line Element Set (TLE):
1 21137U 91009P   20195.65779404 -.00000004 +00000-0 +98828-4 0  9996
2 21137 074.0440 076.1263 0151142 173.1795 215.8788 12.18033484306964
Source of the keplerian elements: AFSPC